[[{"header":{"parameterUnit":"m.s-1","parameterCategory":1,"la1":30.2991,"la2":30.254,"lo1":-89.0895,"lo2":-89.0444,"dy":0.0017,"dx":0.0017,"nx":28,"ny":28,"refTime":"2024-03-03T03:00:00:Z","depth":0,"parameterNumber":2,"parameterNumberName":"U-component_of_WINDS"},"data":[0,0,0,0,0,0,0,0,0,0,0,0,0,0,0,0,0,0,0,0,0,0,0,0,0,0,0,0,0,0,0,0,0,0,0,0,0,0,0,0,0,0,0,0,0,0,0,0,0,0,0,0,0,0,0,0,0,0,-3.548,-3.548,0,-3.5459,-3.5459,-3.5459,-3.537,-3.5367,-3.5365,-3.5363,-3.5343,-3.5345,-3.5346,0,0,0,0,0,0,0,0,0,0,0,0,0,-3.5447,-3.5448,-3.548,-3.548,-3.548,-3.5459,-3.5459,-3.5459,-3.537,-3.5367,-3.5365,-3.5362,-3.5343,-3.5345,-3.5346,0,0,0,0,0,0,0,0,0,0,0,0,0,-3.5447,-3.5448,-3.548,-3.5433,-3.5429,-3.5459,-3.5459,-3.5459,-3.537,-3.5367,-3.5364,-3.5361,-3.5342,-3.5344,-3.5346,-3.5422,0,0,-3.5353,-3.5354,0,0,0,0,0,0,0,0,-3.5447,-3.5448,-3.544,-3.5436,-3.5431,-3.5414,-3.544,-3.5446,-3.5371,-3.5393,-3.5363,-3.536,-3.5369,-3.5369,-3.5372,-3.5421,-3.542,-3.5353,-3.5354,-3.5355,-3.5356,0,0,0,0,0,0,0,-3.5447,-3.5449,-3.5472,-3.544,-3.5435,-3.5414,-3.541,-3.544,-3.5399,-3.539,-3.5384,-3.5383,-3.5366,-3.537,-3.5371,-3.542,-3.5353,-3.5355,-3.5356,-3.5357,-3.5531,-3.5534,0,0,0,0,0,0,-3.5454,-3.5449,-3.5473,-3.5471,-3.5432,-3.5417,-3.5413,-3.5423,-3.5398,-3.5391,-3.5385,-3.5379,-3.5368,-3.5369,-3.537,-3.5457,-3.5355,-3.5357,-3.5358,-3.5528,-3.5532,-3.5535,0,0,0,0,0,0,-3.5453,-3.5456,-3.5474,-3.5459,-3.5459,-3.5421,-3.5432,-3.5424,-3.5427,-3.5394,-3.5387,-3.5397,-3.5366,-3.5367,-3.541,-3.5455,-3.5358,-3.536,-3.5524,-3.5529,-3.5534,-3.5632,0,0,0,0,0,0,-3.5453,-3.5457,-3.5484,-3.546,-3.546,-3.5513,-3.5435,-3.5426,-3.5431,-3.5422,-3.5403,-3.5397,-3.5363,-3.5407,-3.5412,-3.5456,-3.5362,-3.5519,-3.5526,-3.5532,-3.5625,-3.564,-3.5653,0,0,0,0,0,-3.5452,-3.5513,-3.5486,-3.5489,-3.5494,-3.5516,-3.5516,-3.5476,-3.5435,-3.5463,-3.5442,-3.5397,-3.545,-3.5412,-3.5417,-3.5463,-3.5516,-3.5524,-3.5531,-3.5618,-3.5637,-3.5653,0,0,0,0,0,0,-3.5543,-3.5509,-3.5479,-3.5533,-3.5528,-3.5501,-3.5534,-3.5497,-3.5504,-3.5495,-3.5446,-3.5442,-3.5493,-3.5482,-3.5441,-3.5535,-3.5476,-3.5485,-3.554,-3.5557,-3.5571,-3.5573,-3.5363,0,0,0,0,0,-3.557,-3.559,-3.5559,-3.5611,-3.561,-3.5573,-3.5581,-3.5551,-3.5544,-3.5541,-3.5523,-3.5519,-3.5534,-3.5545,-3.5557,-3.5623,-3.5618,-3.5657,-3.5671,-3.5683,-3.5691,-3.5726,-3.5743,-3.556,-3.556,-3.556,0,0,-3.5625,-3.5608,-3.5624,-3.5629,-3.5621,-3.5644,-3.5572,-3.5599,-3.5616,-3.5545,-3.5585,-3.5572,-3.5564,-3.5619,-3.5642,-3.5611,-3.5741,-3.5693,-3.5702,-3.5704,-3.5736,-3.5753,-3.5769,-3.5565,-3.5564,-3.5564,0,0,-3.5737,-3.5726,-3.5768,-3.5763,-3.5753,-3.5728,-3.5739,-3.5717,-3.5706,-3.5745,-3.5693,-3.5713,-3.5741,-3.5737,-3.5739,-3.5853,-3.5813,-3.5859,-3.5933,-3.5967,-3.5982,-3.5994,-3.6036,-3.6051,-3.5867,-3.5867,-3.5868,0,-3.5806,-3.5838,-3.5795,-3.5826,-3.583,-3.5768,-3.5811,-3.5808,-3.5803,-3.5808,-3.5774,-3.5808,-3.5798,-3.5852,-3.588,-3.5883,-3.5894,-3.586,-3.5983,-3.5995,-3.6006,-3.6045,-3.6061,-3.5873,-3.5872,-3.5872,-3.5871,0,-3.5925,-3.5948,-3.5984,-3.5981,-3.5989,-3.6026,-3.5989,-3.6003,-3.5973,-3.5953,-3.5994,-3.5981,-3.599,-3.6,-3.5971,-3.6051,-3.6032,-3.5992,-3.5931,-3.603,-3.6066,-3.608,-3.5881,-3.5879,-3.5877,-3.5876,0,0,-3.6092,-3.6066,-3.6079,-3.6078,-3.6063,-3.6081,-3.6116,-3.6125,-3.6138,-3.6138,-3.6167,-3.6193,-3.6155,-3.6158,-3.6128,-3.6159,-3.6251,-3.6114,-3.6113,-3.614,-3.6339,-3.637,-3.6388,-3.6225,-3.6227,-3.6229,-3.634,0,-3.6199,-3.6256,-3.622,-3.6284,-3.6305,-3.6248,-3.6279,-3.6275,-3.6257,-3.6274,-3.6255,-3.6275,-3.6224,-3.6225,-3.6253,-3.6234,-3.629,-3.6225,-3.6252,-3.6253,-3.6255,-3.6406,-3.6438,-3.6543,-3.6354,-3.6356,-3.6358,0,-3.633,-3.6336,-3.6402,-3.6385,-3.6393,-3.6421,-3.6427,-3.6444,-3.6438,-3.6424,-3.6428,-3.6391,-3.6426,-3.6367,-3.6415,-3.6371,-3.638,-3.6373,-3.6376,-3.6376,-3.6311,-3.6411,-3.6575,-3.6591,-3.6379,-3.6377,-3.6376,0,-3.6446,-3.647,-3.6513,-3.6514,-3.6495,-3.6516,-3.6509,-3.6501,-3.6509,-3.6515,-3.652,-3.653,-3.6536,-3.6545,-3.6513,-3.6473,-3.6566,-3.6503,-3.6555,-3.6556,-3.6576,-3.6575,-3.6744,-3.6583,-3.6583,-3.6582,-3.6582,0,-3.6569,-3.6612,-3.6565,-3.6591,-3.6639,-3.6597,-3.6645,-3.6632,-3.6625,-3.6649,-3.6601,-3.6625,-3.6581,-3.66,-3.6575,-3.6619,-3.6622,-3.6612,-3.6605,-3.6616,-3.6617,-3.662,-3.6612,-3.6586,-3.6586,-3.6585,-3.6584,0,-3.6705,-3.6675,-3.6719,-3.6698,-3.6694,-3.673,-3.6712,-3.6736,-3.6717,-3.6748,-3.6753,-3.6722,-3.6743,-3.6712,-3.6729,-3.6713,-3.6773,-3.6755,-3.6775,-3.677,-3.6823,-3.6819,-3.7,-3.7022,-3.6847,-3.6849,-3.685,0,-3.6785,-3.6817,-3.68,-3.6813,-3.6809,-3.6829,-3.6838,-3.6799,-3.6811,-3.6808,-3.6833,-3.685,-3.6861,-3.6897,-3.6877,-3.6891,-3.6872,-3.6935,-3.6874,-3.6885,-3.6873,-3.6872,-3.6875,-3.6947,-3.6949,-3.6951,-3.6952,0,-3.693,-3.6915,-3.6929,-3.6939,-3.6951,-3.6957,-3.6959,-3.6972,-3.6932,-3.6947,-3.6968,-3.6977,-3.6995,-3.7013,-3.7022,-3.7015,-3.6978,-3.6972,-3.6985,-3.6996,-3.7007,-3.7002,-3.6809,-3.6968,-3.6966,-3.6965,-3.6964,-3.6964,-3.7041,-3.7067,-3.706,-3.7078,-3.7076,-3.708,-3.7102,-3.7086,-3.7102,-3.7114,-3.7091,-3.7118,-3.7113,-3.7121,-3.712,-3.7141,-3.7113,-3.7132,-3.7136,-3.7141,-3.715,-3.7004,-3.7142,-3.7142,-3.7141,-3.7141,-3.7141,0,-3.7184,-3.7177,-3.7194,-3.7199,-3.7214,-3.7178,-3.7179,-3.7194,-3.7218,-3.7217,-3.723,-3.7255,-3.7272,-3.7255,-3.7269,-3.729,-3.7273,-3.7295,-3.7292,-3.7292,-3.7173,-3.7161,-3.7308,-3.7308,-3.7308,-3.7308,-3.7308,-3.7308,-3.726,-3.7302,-3.7287,-3.7329,-3.7321,-3.7347,-3.7352,-3.7356,-3.7355,-3.7385,-3.7399,-3.7387,-3.738,-3.7394,-3.7409,-3.7403,-3.7411,-3.7439,-3.7428,-3.7317,-3.73,-3.7284,-3.7273,-3.7441,-3.7441,-3.7544,-3.7545,-3.7546]},{"header":{"parameterUnit":"m.s-1","parameterCategory":1,"la1":30.2991,"la2":30.254,"lo1":-89.0895,"lo2":-89.0444,"dy":0.0017,"dx":0.0017,"nx":28,"ny":28,"refTime":"2024-03-03T03:00:00:Z","depth":0,"parameterNumber":3,"parameterNumberName":"V-component_of_WINDS"},"data":[0,0,0,0,0,0,0,0,0,0,0,0,0,0,0,0,0,0,0,0,0,0,0,0,0,0,0,0,0,0,0,0,0,0,0,0,0,0,0,0,0,0,0,0,0,0,0,0,0,0,0,0,0,0,0,0,0,0,0.8346,0.8346,0,0.8388,0.8388,0.8389,0.8465,0.8466,0.8467,0.8469,0.8509,0.8509,0.8509,0,0,0,0,0,0,0,0,0,0,0,0,0,0.8329,0.8329,0.8346,0.8346,0.8347,0.8388,0.8388,0.8389,0.8464,0.8466,0.8468,0.8469,0.851,0.8509,0.8509,0,0,0,0,0,0,0,0,0,0,0,0,0,0.835,0.8329,0.8346,0.8389,0.8394,0.8388,0.8388,0.8389,0.8464,0.8466,0.8468,0.847,0.851,0.8509,0.8509,0.8463,0,0,0.8508,0.8507,0,0,0,0,0,0,0,0,0.8349,0.8351,0.8382,0.8386,0.8391,0.8423,0.8398,0.8414,0.8463,0.8437,0.8469,0.8471,0.8479,0.8481,0.8484,0.8465,0.8467,0.8508,0.8507,0.8507,0.8507,0,0,0,0,0,0,0,0.8347,0.8349,0.8362,0.8383,0.8388,0.8406,0.8412,0.8401,0.8445,0.844,0.8445,0.8449,0.8482,0.8484,0.8486,0.8467,0.8508,0.8507,0.8507,0.8507,0.8414,0.8412,0,0,0,0,0,0,0.834,0.8348,0.8361,0.8364,0.8375,0.8405,0.8411,0.8411,0.8446,0.8453,0.8447,0.8453,0.8484,0.8486,0.8487,0.8438,0.8507,0.8507,0.8507,0.8417,0.8414,0.8411,0,0,0,0,0,0,0.8339,0.834,0.8359,0.8357,0.8361,0.8403,0.8402,0.841,0.8413,0.8452,0.846,0.8442,0.8486,0.8488,0.8469,0.844,0.8507,0.8506,0.8419,0.8416,0.8413,0.8336,0,0,0,0,0,0,0.8338,0.8339,0.8323,0.8356,0.8361,0.834,0.84,0.841,0.8413,0.842,0.8449,0.8456,0.8488,0.8469,0.8469,0.8441,0.8506,0.8422,0.8418,0.8414,0.8342,0.8331,0.8321,0,0,0,0,0,0.8337,0.8298,0.8321,0.8323,0.8341,0.8339,0.8341,0.838,0.841,0.8394,0.8418,0.8455,0.8443,0.8467,0.8467,0.8438,0.8424,0.8419,0.8414,0.8346,0.8333,0.8322,0,0,0,0,0,0,0.8259,0.8304,0.8329,0.83,0.8315,0.8351,0.8332,0.8364,0.837,0.8376,0.8423,0.8429,0.8404,0.8419,0.8445,0.8396,0.8439,0.8434,0.8388,0.8375,0.8366,0.8363,0.8506,0,0,0,0,0,0.8238,0.8233,0.8272,0.8243,0.8249,0.8289,0.8289,0.8318,0.8335,0.8341,0.8365,0.8379,0.8379,0.8378,0.838,0.8344,0.8352,0.8324,0.8314,0.8306,0.8301,0.8285,0.8273,0.8395,0.8395,0.8395,0,0,0.8196,0.8219,0.8213,0.8228,0.8243,0.8237,0.8294,0.8284,0.828,0.834,0.8324,0.8341,0.8361,0.8334,0.8323,0.8345,0.8269,0.8299,0.8292,0.8292,0.8278,0.8267,0.8256,0.8392,0.8392,0.8393,0,0,0.8115,0.8132,0.811,0.8125,0.8147,0.8174,0.8169,0.82,0.8215,0.82,0.8245,0.824,0.8239,0.8251,0.8257,0.8183,0.8217,0.8182,0.8129,0.8113,0.8104,0.8095,0.807,0.806,0.8177,0.8177,0.8176,0,0.8059,0.8052,0.8095,0.8083,0.8089,0.8144,0.8122,0.8134,0.8155,0.8157,0.8182,0.8183,0.8199,0.8177,0.8159,0.8162,0.8157,0.8179,0.8102,0.8094,0.8087,0.8063,0.8053,0.8172,0.8173,0.8173,0.8174,0,0.7983,0.7977,0.7957,0.7978,0.7981,0.7964,0.8005,0.8002,0.8031,0.8055,0.804,0.8062,0.807,0.8067,0.8093,0.8048,0.8062,0.8093,0.8138,0.807,0.8049,0.804,0.8166,0.8168,0.8169,0.817,0,0,0.7854,0.79,0.7891,0.7902,0.7932,0.7928,0.7914,0.7923,0.7921,0.7934,0.7924,0.7922,0.7952,0.7959,0.7988,0.7973,0.7915,0.8007,0.8009,0.799,0.7868,0.7845,0.7833,0.7938,0.7936,0.7935,0.7867,0,0.778,0.776,0.7799,0.7769,0.7766,0.7818,0.7806,0.7823,0.7845,0.7845,0.7869,0.7868,0.7907,0.7912,0.7899,0.7925,0.7891,0.793,0.7929,0.7928,0.7924,0.7822,0.7797,0.7732,0.7858,0.7857,0.7856,0,0.7692,0.7702,0.7673,0.7706,0.7705,0.7694,0.7706,0.7705,0.7725,0.7743,0.7751,0.7786,0.7774,0.7816,0.7802,0.7828,0.7829,0.7842,0.784,0.7842,0.7889,0.7822,0.7712,0.7702,0.7843,0.7844,0.7845,0,0.7603,0.7609,0.7593,0.76,0.7637,0.7628,0.7643,0.7666,0.7669,0.768,0.7683,0.7691,0.7695,0.7701,0.7737,0.7764,0.7719,0.7763,0.7733,0.7732,0.7722,0.7722,0.7611,0.7721,0.7721,0.7721,0.7721,0,0.7517,0.7497,0.7553,0.7543,0.7523,0.7567,0.7546,0.7566,0.7586,0.7581,0.7626,0.762,0.7667,0.7666,0.7694,0.7679,0.768,0.7694,0.7702,0.7691,0.7689,0.7693,0.7699,0.7718,0.7719,0.7719,0.772,0,0.7414,0.7451,0.7437,0.7474,0.7483,0.7466,0.7498,0.749,0.7516,0.7509,0.7509,0.7549,0.7551,0.7587,0.7596,0.7615,0.7588,0.7604,0.7582,0.7587,0.7556,0.7558,0.7444,0.7432,0.7548,0.7547,0.7546,0,0.7358,0.7344,0.738,0.7381,0.7394,0.7394,0.7398,0.7441,0.7444,0.7467,0.7456,0.7462,0.7469,0.7469,0.7498,0.7505,0.7522,0.7482,0.7524,0.7513,0.7523,0.7524,0.7523,0.7473,0.7471,0.747,0.7469,0,0.7255,0.7274,0.7279,0.729,0.7295,0.7305,0.7319,0.7317,0.7364,0.7365,0.7368,0.7373,0.7383,0.7388,0.7401,0.7416,0.7451,0.7456,0.745,0.7438,0.7427,0.7434,0.7559,0.7458,0.7459,0.746,0.7461,0.7461,0.7174,0.7165,0.719,0.7194,0.7209,0.7221,0.7217,0.7242,0.7246,0.7258,0.7283,0.7282,0.7304,0.7325,0.7337,0.7337,0.7358,0.7348,0.7346,0.7343,0.7337,0.7426,0.7339,0.734,0.734,0.734,0.7341,0,0.7075,0.7093,0.7097,0.7116,0.7119,0.7152,0.7169,0.717,0.7169,0.7187,0.7193,0.7197,0.7202,0.7232,0.7241,0.7236,0.7252,0.7237,0.7238,0.7241,0.7318,0.7323,0.7224,0.7224,0.7224,0.7224,0.7224,0.7224,0.7023,0.701,0.7032,0.7028,0.7046,0.7047,0.7054,0.7066,0.708,0.7083,0.7088,0.7108,0.7131,0.7142,0.7149,0.7158,0.7159,0.7139,0.7153,0.7224,0.7235,0.7246,0.7252,0.7139,0.7138,0.7077,0.7076,0.7075]}]]